User: anonymous   Login
Location: ČR
(50.0000°N, 15.0000°E)
Time: 09:18:24
(UTC+00:00)
Language:

Tiros 1 despin weight - Orbit

View from above orbital plane
View from above orbital plane
View from above satellite
View from above satellite

Ground track
Ground track

The orbit data is extracted from the following two-line orbital elements,

1 00115U 60002D   21293.37932483  .00000209  00000-0  51507-4 0  9994
2 00115  48.1667  77.9130 0034950 248.6004 111.1178 14.83863188264566
Epoch (UTC): 20 October 2021 09:06:13
Eccentricity: 0.0034950
inclination: 48.1667°
perigee height: 593 km
apogee height: 641 km
right ascension of ascending node: 77.9130°
argument of perigee: 248.6004°
revolutions per day: 14.83863188
mean anomaly at epoch: 111.1178°
orbit number at epoch: 26456

The dashed part of the orbit path shows where the satellite is in the earth's shadow,  

DLR